2018-004AB (43136 NORAD) Tracking and Keplerian Element Data

This shows tracking and keplerian element data for the satellite.

Feedback or suggestion? Click here.




ElementValue
Catalog43136
Name2018-004AB
Epoch Orbit26212
Epoch Day270.1686254
Epoch Year2022
RAAN348.7833
Inclination97.3708
Eccentricity0.0005718
Argument of Perigee358.7562
Mean Anonmoly1.3668
Mean Motion15.37729926
Decay Rate0.00030322
L11 43136U 18004AB 22270.16862540 .00030322 00000+0 81788-3 0 9999
L22 43136 97.3708 348.7833 0005718 358.7562 1.3668 15.37729926262124

Live tracking and technical data element details for 2018-004AB (NORAD 43136). 2018-004AB can be tracked NOW for your location showing map with azimuth and elevation plus other details from your city location.

Track the satellite on the map from your city or location and see movement details for azimuth, elevation, latitude, longitude, range, height, and movement on the map or in text.







IsCatalogInMostPopularTable: catalog: 43136, numindb: 649
Update: records affected: 1



GetName: 43136 2018-004AB

Hit Count: updated at: Thu, 29 Sep 2022 11:02:46 GMT